Year,Month,Day,Hour,Minute,Value (Times are PST for temperature in C)
2017,06,24,00,00,18.70
2017,06,24,00,01,18.60
2017,06,24,00,02,18.60
2017,06,24,00,03,18.60
2017,06,24,00,04,18.50
2017,06,24,00,05,18.50
2017,06,24,00,06,18.40
2017,06,24,00,07,18.40
2017,06,24,00,08,18.40
2017,06,24,00,09,18.30
2017,06,24,00,10,18.30
2017,06,24,00,11,18.30
2017,06,24,00,12,18.20
2017,06,24,00,13,18.20
2017,06,24,00,14,18.20
2017,06,24,00,15,18.20
2017,06,24,00,16,18.10
2017,06,24,00,17,18.10
2017,06,24,00,18,18.10
2017,06,24,00,19,18.10
2017,06,24,00,20,18.00
2017,06,24,00,21,18.00
2017,06,24,00,22,17.90
2017,06,24,00,23,17.90
2017,06,24,00,24,17.90
2017,06,24,00,25,17.90
2017,06,24,00,26,17.80
2017,06,24,00,27,17.80
2017,06,24,00,28,17.80
2017,06,24,00,29,17.80
2017,06,24,00,30,17.80
2017,06,24,00,31,17.90
2017,06,24,00,32,17.90
2017,06,24,00,33,17.90
2017,06,24,00,34,18.00
2017,06,24,00,35,18.00
2017,06,24,00,36,18.00
2017,06,24,00,37,17.90
2017,06,24,00,38,17.90
2017,06,24,00,39,17.90
2017,06,24,00,40,17.90
2017,06,24,00,41,17.90
2017,06,24,00,42,17.90
2017,06,24,00,43,17.90
2017,06,24,00,44,17.80
2017,06,24,00,45,17.80
2017,06,24,00,46,17.80
2017,06,24,00,47,17.80
2017,06,24,00,48,17.80
2017,06,24,00,49,17.80
2017,06,24,00,50,17.80
2017,06,24,00,51,17.90
2017,06,24,00,52,17.90
2017,06,24,00,53,17.90
2017,06,24,00,54,17.90
2017,06,24,00,55,17.90
2017,06,24,00,56,17.90
2017,06,24,00,57,17.90
2017,06,24,00,58,17.90
2017,06,24,00,59,17.90
2017,06,24,01,00,17.90
2017,06,24,01,01,17.90
2017,06,24,01,02,17.90
2017,06,24,01,03,17.90
2017,06,24,01,04,17.90
2017,06,24,01,05,17.90
2017,06,24,01,06,17.90
2017,06,24,01,07,17.90
2017,06,24,01,08,17.80
2017,06,24,01,09,17.80
2017,06,24,01,10,17.80
2017,06,24,01,11,17.80
2017,06,24,01,12,17.80
2017,06,24,01,13,17.80
2017,06,24,01,14,17.80
2017,06,24,01,15,17.80
2017,06,24,01,16,17.80
2017,06,24,01,17,17.80
2017,06,24,01,18,17.80
2017,06,24,01,19,17.80
2017,06,24,01,20,17.80
2017,06,24,01,21,17.80
2017,06,24,01,22,17.80
2017,06,24,01,23,17.80
2017,06,24,01,24,17.80
2017,06,24,01,25,17.80
2017,06,24,01,26,17.80
2017,06,24,01,27,17.80
2017,06,24,01,28,17.80
2017,06,24,01,29,17.80
2017,06,24,01,30,17.80
2017,06,24,01,31,17.80
2017,06,24,01,32,17.80
2017,06,24,01,33,17.70
2017,06,24,01,34,17.70
2017,06,24,01,35,17.70
2017,06,24,01,36,17.60
2017,06,24,01,37,17.60
2017,06,24,01,38,17.60
2017,06,24,01,39,17.50
2017,06,24,01,40,17.50
2017,06,24,01,41,17.40
2017,06,24,01,42,17.40
2017,06,24,01,43,17.30
2017,06,24,01,44,17.30
2017,06,24,01,45,17.20
2017,06,24,01,46,17.20
2017,06,24,01,47,17.20
2017,06,24,01,48,17.20
2017,06,24,01,49,17.10
2017,06,24,01,50,17.00
2017,06,24,01,51,16.90
2017,06,24,01,52,16.90
2017,06,24,01,53,16.80
2017,06,24,01,54,16.80
2017,06,24,01,55,16.80
2017,06,24,01,56,16.70
2017,06,24,01,57,16.70
2017,06,24,01,58,16.70
2017,06,24,01,59,16.60
2017,06,24,02,00,16.60
2017,06,24,02,01,16.60
2017,06,24,02,02,16.50
2017,06,24,02,03,16.50
2017,06,24,02,04,16.50
2017,06,24,02,05,16.40
2017,06,24,02,06,16.40
2017,06,24,02,07,16.30
2017,06,24,02,08,16.30
2017,06,24,02,09,16.30
2017,06,24,02,10,16.30
2017,06,24,02,11,16.20
2017,06,24,02,12,16.20
2017,06,24,02,13,16.20
2017,06,24,02,14,16.20
2017,06,24,02,15,16.20
2017,06,24,02,16,16.20
2017,06,24,02,17,16.20
2017,06,24,02,18,16.20
2017,06,24,02,19,16.20
2017,06,24,02,20,16.20
2017,06,24,02,21,16.10
2017,06,24,02,22,16.10
2017,06,24,02,23,16.10
2017,06,24,02,24,16.10
2017,06,24,02,25,16.10
2017,06,24,02,26,16.00
2017,06,24,02,27,16.00
2017,06,24,02,28,16.00
2017,06,24,02,29,15.90
2017,06,24,02,30,15.90
2017,06,24,02,31,15.90
2017,06,24,02,32,15.90
2017,06,24,02,33,15.80
2017,06,24,02,34,15.80
2017,06,24,02,35,15.80
2017,06,24,02,36,15.80
2017,06,24,02,37,15.80
2017,06,24,02,38,15.80
2017,06,24,02,39,15.70
2017,06,24,02,40,15.70
2017,06,24,02,41,15.70
2017,06,24,02,42,15.70
2017,06,24,02,43,15.70
2017,06,24,02,44,15.70
2017,06,24,02,45,15.60
2017,06,24,02,46,15.60
2017,06,24,02,47,15.60
2017,06,24,02,48,15.50
2017,06,24,02,49,15.50
2017,06,24,02,50,15.50
2017,06,24,02,51,15.60
2017,06,24,02,52,15.60
2017,06,24,02,53,15.60
2017,06,24,02,54,15.60
2017,06,24,02,55,15.60
2017,06,24,02,56,15.60
2017,06,24,02,57,15.60
2017,06,24,02,58,15.60
2017,06,24,02,59,15.60
2017,06,24,03,00,15.60
2017,06,24,03,01,15.70
2017,06,24,03,02,15.70
2017,06,24,03,03,15.70
2017,06,24,03,04,15.70
2017,06,24,03,05,15.70
2017,06,24,03,06,15.80
2017,06,24,03,07,15.80
2017,06,24,03,08,15.80
2017,06,24,03,09,15.80
2017,06,24,03,10,15.90
2017,06,24,03,11,15.90
2017,06,24,03,12,15.90
2017,06,24,03,13,15.90
2017,06,24,03,14,15.90
2017,06,24,03,15,15.90
2017,06,24,03,16,16.00
2017,06,24,03,17,16.00
2017,06,24,03,18,16.10
2017,06,24,03,19,16.10
2017,06,24,03,20,16.20
2017,06,24,03,21,16.20
2017,06,24,03,22,16.20
2017,06,24,03,23,16.20
2017,06,24,03,24,16.30
2017,06,24,03,25,16.30
2017,06,24,03,26,16.30
2017,06,24,03,27,16.30
2017,06,24,03,28,16.30
2017,06,24,03,29,16.40
2017,06,24,03,30,16.40
2017,06,24,03,31,16.40
2017,06,24,03,32,16.40
2017,06,24,03,33,16.50
2017,06,24,03,34,16.50
2017,06,24,03,35,16.50
2017,06,24,03,36,16.50
2017,06,24,03,37,16.60
2017,06,24,03,38,16.60
2017,06,24,03,39,16.50
2017,06,24,03,40,16.50
2017,06,24,03,41,16.50
2017,06,24,03,42,16.50
2017,06,24,03,43,16.50
2017,06,24,03,44,16.40
2017,06,24,03,45,16.40
2017,06,24,03,46,16.40
2017,06,24,03,47,16.40
2017,06,24,03,48,16.40
2017,06,24,03,49,16.30
2017,06,24,03,50,16.30
2017,06,24,03,51,16.30
2017,06,24,03,52,16.30
2017,06,24,03,53,16.20
2017,06,24,03,54,16.20
2017,06,24,03,55,16.10
2017,06,24,03,56,16.10
2017,06,24,03,57,16.10
2017,06,24,03,58,16.00
2017,06,24,03,59,16.00
2017,06,24,04,00,16.00
2017,06,24,04,01,16.10
2017,06,24,04,02,16.00
2017,06,24,04,03,16.00
2017,06,24,04,04,16.00
2017,06,24,04,05,16.00
2017,06,24,04,06,16.00
2017,06,24,04,07,15.90
2017,06,24,04,08,15.90
2017,06,24,04,09,15.90
2017,06,24,04,10,15.80
2017,06,24,04,11,15.70
2017,06,24,04,12,15.70
2017,06,24,04,13,15.70
2017,06,24,04,14,15.60
2017,06,24,04,15,15.60
2017,06,24,04,16,15.60
2017,06,24,04,17,15.60
2017,06,24,04,18,15.50
2017,06,24,04,19,15.50
2017,06,24,04,20,15.50
2017,06,24,04,21,15.50
2017,06,24,04,22,15.50
2017,06,24,04,23,15.60
2017,06,24,04,24,15.60
2017,06,24,04,25,15.70
2017,06,24,04,26,15.80
2017,06,24,04,27,15.80
2017,06,24,04,28,15.80
2017,06,24,04,29,15.70
2017,06,24,04,30,15.70
2017,06,24,04,31,15.60
2017,06,24,04,32,15.50
2017,06,24,04,33,15.50
2017,06,24,04,34,15.40
2017,06,24,04,35,15.40
2017,06,24,04,36,15.50
2017,06,24,04,37,15.60
2017,06,24,04,38,15.80
2017,06,24,04,39,15.90
2017,06,24,04,40,16.00
2017,06,24,04,41,16.00
2017,06,24,04,42,16.10
2017,06,24,04,43,16.10
2017,06,24,04,44,16.20
2017,06,24,04,45,16.20
2017,06,24,04,46,16.20
2017,06,24,04,47,16.20
2017,06,24,04,48,16.20
2017,06,24,04,49,16.20
2017,06,24,04,50,16.10
2017,06,24,04,51,16.10
2017,06,24,04,52,16.10
2017,06,24,04,53,16.00
2017,06,24,04,54,16.00
2017,06,24,04,55,15.90
2017,06,24,04,56,15.90
2017,06,24,04,57,15.80
2017,06,24,04,58,15.70
2017,06,24,04,59,15.60
2017,06,24,05,00,15.60
2017,06,24,05,01,15.50
2017,06,24,05,02,15.50
2017,06,24,05,03,15.50
2017,06,24,05,04,15.40
2017,06,24,05,05,15.40
2017,06,24,05,06,15.40
2017,06,24,05,07,15.40
2017,06,24,05,08,15.40
2017,06,24,05,09,15.40
2017,06,24,05,10,15.40
2017,06,24,05,11,15.40
2017,06,24,05,12,15.50
2017,06,24,05,13,15.40
2017,06,24,05,14,15.40
2017,06,24,05,15,15.40
2017,06,24,05,16,15.50
2017,06,24,05,17,15.50
2017,06,24,05,18,15.50
2017,06,24,05,19,15.40
2017,06,24,05,20,15.40
2017,06,24,05,21,15.40
2017,06,24,05,22,15.40
2017,06,24,05,23,15.40
2017,06,24,05,24,15.40
2017,06,24,05,25,15.30
2017,06,24,05,26,15.30
2017,06,24,05,27,15.30
2017,06,24,05,28,15.30
2017,06,24,05,29,15.30
2017,06,24,05,30,15.30
2017,06,24,05,31,15.30
2017,06,24,05,32,15.30
2017,06,24,05,33,15.30
2017,06,24,05,34,15.20
2017,06,24,05,35,15.20
2017,06,24,05,36,15.20
2017,06,24,05,37,15.20
2017,06,24,05,38,15.20
2017,06,24,05,39,15.10
2017,06,24,05,40,15.10
2017,06,24,05,41,15.10
2017,06,24,05,42,15.10
2017,06,24,05,43,15.00
2017,06,24,05,44,15.10
2017,06,24,05,45,15.10
2017,06,24,05,46,15.10
2017,06,24,05,47,15.10
2017,06,24,05,48,15.20
2017,06,24,05,49,15.30
2017,06,24,05,50,15.30
2017,06,24,05,51,15.30
2017,06,24,05,52,15.40
2017,06,24,05,53,15.40
2017,06,24,05,54,15.40
2017,06,24,05,55,15.40
2017,06,24,05,56,15.40
2017,06,24,05,57,15.50
2017,06,24,05,58,15.50
2017,06,24,05,59,15.50
2017,06,24,06,00,15.50
2017,06,24,06,01,15.60
2017,06,24,06,02,15.60
2017,06,24,06,03,15.60
2017,06,24,06,04,15.60
2017,06,24,06,05,15.60
2017,06,24,06,06,15.60
2017,06,24,06,07,15.60
2017,06,24,06,08,15.60
2017,06,24,06,09,15.60
2017,06,24,06,10,15.60
2017,06,24,06,11,15.70
2017,06,24,06,12,15.70
2017,06,24,06,13,15.70
2017,06,24,06,14,15.70
2017,06,24,06,15,15.70
2017,06,24,06,16,15.70
2017,06,24,06,17,15.80
2017,06,24,06,18,15.80
2017,06,24,06,19,15.90
2017,06,24,06,20,16.00
2017,06,24,06,21,16.10
2017,06,24,06,22,16.20
2017,06,24,06,23,16.30
2017,06,24,06,24,16.40
2017,06,24,06,25,16.50
2017,06,24,06,26,16.60
2017,06,24,06,27,16.70
2017,06,24,06,28,16.80
2017,06,24,06,29,16.80
2017,06,24,06,30,16.80
2017,06,24,06,31,16.90
2017,06,24,06,32,16.90
2017,06,24,06,33,17.00
2017,06,24,06,34,17.00
2017,06,24,06,35,17.10
2017,06,24,06,36,17.10
2017,06,24,06,37,17.20
2017,06,24,06,38,17.30
2017,06,24,06,39,17.30
2017,06,24,06,40,17.40
2017,06,24,06,41,17.50
2017,06,24,06,42,17.60
2017,06,24,06,43,17.60
2017,06,24,06,44,17.70
2017,06,24,06,45,17.70
2017,06,24,06,46,17.80
2017,06,24,06,47,17.90
2017,06,24,06,48,18.00
2017,06,24,06,49,18.10
2017,06,24,06,50,18.20
2017,06,24,06,51,18.20
2017,06,24,06,52,18.30
2017,06,24,06,53,18.40
2017,06,24,06,54,18.40
2017,06,24,06,55,18.50
2017,06,24,06,56,18.50
2017,06,24,06,57,18.60
2017,06,24,06,58,18.60
2017,06,24,06,59,18.60
2017,06,24,07,00,18.60
2017,06,24,07,01,18.60
2017,06,24,07,02,18.60
2017,06,24,07,03,18.70
2017,06,24,07,04,18.70
2017,06,24,07,05,18.70
2017,06,24,07,06,18.70
2017,06,24,07,07,18.70
2017,06,24,07,08,18.70
2017,06,24,07,09,18.70
2017,06,24,07,10,18.70
2017,06,24,07,11,18.70
2017,06,24,07,12,18.70
2017,06,24,07,13,18.70
2017,06,24,07,14,18.70
2017,06,24,07,15,18.80
2017,06,24,07,16,18.80
2017,06,24,07,17,18.80
2017,06,24,07,18,18.80
2017,06,24,07,19,18.80
2017,06,24,07,20,18.80
2017,06,24,07,21,18.80
2017,06,24,07,22,18.80
2017,06,24,07,23,18.90
2017,06,24,07,24,18.90
2017,06,24,07,25,18.90
2017,06,24,07,26,19.00
2017,06,24,07,27,19.00
2017,06,24,07,28,19.00
2017,06,24,07,29,19.00
2017,06,24,07,30,19.10
2017,06,24,07,31,19.20
2017,06,24,07,32,19.30
2017,06,24,07,33,19.30
2017,06,24,07,34,19.40
2017,06,24,07,35,19.50
2017,06,24,07,36,19.50
2017,06,24,07,37,19.60
2017,06,24,07,38,19.70
2017,06,24,07,39,19.80
2017,06,24,07,40,19.80
2017,06,24,07,41,19.90
2017,06,24,07,42,20.00
2017,06,24,07,43,20.00
2017,06,24,07,44,20.10
2017,06,24,07,45,20.10
2017,06,24,07,46,20.10
2017,06,24,07,47,20.20
2017,06,24,07,48,20.20
2017,06,24,07,49,20.30
2017,06,24,07,50,20.30
2017,06,24,07,51,20.40
2017,06,24,07,52,20.40
2017,06,24,07,53,20.40
2017,06,24,07,54,20.40
2017,06,24,07,55,20.40
2017,06,24,07,56,20.40
2017,06,24,07,57,20.40
2017,06,24,07,58,20.40
2017,06,24,07,59,20.40
2017,06,24,08,00,20.50
2017,06,24,08,01,20.50
2017,06,24,08,02,20.50
2017,06,24,08,03,20.60
2017,06,24,08,04,20.60
2017,06,24,08,05,20.60
2017,06,24,08,06,20.60
2017,06,24,08,07,20.70
2017,06,24,08,08,20.70
2017,06,24,08,09,20.70
2017,06,24,08,10,20.70
2017,06,24,08,11,20.70
2017,06,24,08,12,20.70
2017,06,24,08,13,20.70
2017,06,24,08,14,20.80
2017,06,24,08,15,20.80
2017,06,24,08,16,20.70
2017,06,24,08,17,20.70
2017,06,24,08,18,20.70
2017,06,24,08,19,20.70
2017,06,24,08,20,20.70
2017,06,24,08,21,20.70
2017,06,24,08,22,20.70
2017,06,24,08,23,20.80
2017,06,24,08,24,20.80
2017,06,24,08,25,20.80
2017,06,24,08,26,20.90
2017,06,24,08,27,20.90
2017,06,24,08,28,20.90
2017,06,24,08,29,20.90
2017,06,24,08,30,20.90
2017,06,24,08,31,21.00
2017,06,24,08,32,21.00
2017,06,24,08,33,21.00
2017,06,24,08,34,20.90
2017,06,24,08,35,20.90
2017,06,24,08,36,20.90
2017,06,24,08,37,20.80
2017,06,24,08,38,20.80
2017,06,24,08,39,20.80
2017,06,24,08,40,20.80
2017,06,24,08,41,20.80
2017,06,24,08,42,20.90
2017,06,24,08,43,20.90
2017,06,24,08,44,20.90
2017,06,24,08,45,20.90
2017,06,24,08,46,20.90
2017,06,24,08,47,20.90
2017,06,24,08,48,21.00
2017,06,24,08,49,21.00
2017,06,24,08,50,21.00
2017,06,24,08,51,21.10
2017,06,24,08,52,21.10
2017,06,24,08,53,21.10
2017,06,24,08,54,21.10
2017,06,24,08,55,21.10
2017,06,24,08,56,21.20
2017,06,24,08,57,21.20
2017,06,24,08,58,21.20
2017,06,24,08,59,21.20
2017,06,24,09,00,21.20
2017,06,24,09,01,21.20
2017,06,24,09,02,21.20
2017,06,24,09,03,21.20
2017,06,24,09,04,21.20
2017,06,24,09,05,21.30
2017,06,24,09,06,21.30
2017,06,24,09,07,21.40
2017,06,24,09,08,21.40
2017,06,24,09,09,21.40
2017,06,24,09,10,21.50
2017,06,24,09,11,21.50
2017,06,24,09,12,21.60
2017,06,24,09,13,21.60
2017,06,24,09,14,21.70
2017,06,24,09,15,21.70
2017,06,24,09,16,21.80
2017,06,24,09,17,21.80
2017,06,24,09,18,21.80
2017,06,24,09,19,21.80
2017,06,24,09,20,21.90
2017,06,24,09,21,21.90
2017,06,24,09,22,22.00
2017,06,24,09,23,22.00
2017,06,24,09,24,22.10
2017,06,24,09,25,22.10
2017,06,24,09,26,22.10
2017,06,24,09,27,22.10
2017,06,24,09,28,22.10
2017,06,24,09,29,22.10
2017,06,24,09,30,22.10
2017,06,24,09,31,22.00
2017,06,24,09,32,22.00
2017,06,24,09,33,21.90
2017,06,24,09,34,21.90
2017,06,24,09,35,22.00
2017,06,24,09,36,22.00
2017,06,24,09,37,22.00
2017,06,24,09,38,22.00
2017,06,24,09,39,22.10
2017,06,24,09,40,22.10
2017,06,24,09,41,22.20
2017,06,24,09,42,22.20
2017,06,24,09,43,22.20
2017,06,24,09,44,22.20
2017,06,24,09,45,22.20
2017,06,24,09,46,22.30
2017,06,24,09,47,22.30
2017,06,24,09,48,22.30
2017,06,24,09,49,22.40
2017,06,24,09,50,22.40
2017,06,24,09,51,22.40
2017,06,24,09,52,22.50
2017,06,24,09,53,22.50
2017,06,24,09,54,22.60
2017,06,24,09,55,22.70
2017,06,24,09,56,22.70
2017,06,24,09,57,22.80
2017,06,24,09,58,22.80
2017,06,24,09,59,22.80
2017,06,24,10,00,22.80
2017,06,24,10,01,22.90
2017,06,24,10,02,22.90
2017,06,24,10,03,22.90
2017,06,24,10,04,22.90
2017,06,24,10,05,22.90
2017,06,24,10,06,22.90
2017,06,24,10,07,22.90
2017,06,24,10,08,22.90
2017,06,24,10,09,22.90
2017,06,24,10,10,22.90
2017,06,24,10,11,22.80
2017,06,24,10,12,22.80
2017,06,24,10,13,22.80
2017,06,24,10,14,22.80
2017,06,24,10,15,22.70
2017,06,24,10,16,22.70
2017,06,24,10,17,22.60
2017,06,24,10,18,22.60
2017,06,24,10,19,22.50
2017,06,24,10,20,22.40
2017,06,24,10,21,22.40
2017,06,24,10,22,22.40
2017,06,24,10,23,22.40
2017,06,24,10,24,22.50
2017,06,24,10,25,22.60
2017,06,24,10,26,22.60
2017,06,24,10,27,22.60
2017,06,24,10,28,22.60
2017,06,24,10,29,22.60
2017,06,24,10,30,22.60
2017,06,24,10,31,22.60
2017,06,24,10,32,22.60
2017,06,24,10,33,22.70
2017,06,24,10,34,22.80
2017,06,24,10,35,22.80
2017,06,24,10,36,22.80
2017,06,24,10,37,22.80
2017,06,24,10,38,22.80
2017,06,24,10,39,22.80
2017,06,24,10,40,22.80
2017,06,24,10,41,22.70
2017,06,24,10,42,22.70
2017,06,24,10,43,22.70
2017,06,24,10,44,22.70
2017,06,24,10,45,22.70
2017,06,24,10,46,22.80
2017,06,24,10,47,22.90
2017,06,24,10,48,23.00
2017,06,24,10,49,23.10
2017,06,24,10,50,23.20
2017,06,24,10,51,23.30
2017,06,24,10,52,23.40
2017,06,24,10,53,23.40
2017,06,24,10,54,23.50
2017,06,24,10,55,23.60
2017,06,24,10,56,23.70
2017,06,24,10,57,23.70
2017,06,24,10,58,23.70
2017,06,24,10,59,23.60
2017,06,24,11,00,23.60
2017,06,24,11,01,23.60
2017,06,24,11,02,23.60
2017,06,24,11,03,23.60
2017,06,24,11,04,23.60
2017,06,24,11,05,23.60
2017,06,24,11,06,23.60
2017,06,24,11,07,23.60
2017,06,24,11,08,23.50
2017,06,24,11,09,23.50
2017,06,24,11,10,23.60
2017,06,24,11,11,23.60
2017,06,24,11,12,23.60
2017,06,24,11,13,23.70
2017,06,24,11,14,23.70
2017,06,24,11,15,23.80
2017,06,24,11,16,23.90
2017,06,24,11,17,23.90
2017,06,24,11,18,23.90
2017,06,24,11,19,23.90
2017,06,24,11,20,23.90
2017,06,24,11,21,24.00
2017,06,24,11,22,24.00
2017,06,24,11,23,24.00
2017,06,24,11,24,24.10
2017,06,24,11,25,24.10
2017,06,24,11,26,24.10
2017,06,24,11,27,24.20
2017,06,24,11,28,24.20
2017,06,24,11,29,24.30
2017,06,24,11,30,24.30
2017,06,24,11,31,24.30
2017,06,24,11,32,24.40
2017,06,24,11,33,24.40
2017,06,24,11,34,24.40
2017,06,24,11,35,24.40
2017,06,24,11,36,24.40
2017,06,24,11,37,24.50
2017,06,24,11,38,24.60
2017,06,24,11,39,24.70
2017,06,24,11,40,24.80
2017,06,24,11,41,24.90
2017,06,24,11,42,24.90
2017,06,24,11,43,24.90
2017,06,24,11,44,25.00
2017,06,24,11,45,25.10
2017,06,24,11,46,25.10
2017,06,24,11,47,25.10
2017,06,24,11,48,25.10
2017,06,24,11,49,24.90
2017,06,24,11,50,24.80
2017,06,24,11,51,24.70
2017,06,24,11,52,24.70
2017,06,24,11,53,24.70
2017,06,24,11,54,24.70
2017,06,24,11,55,24.80
2017,06,24,11,56,24.80
2017,06,24,11,57,24.90
2017,06,24,11,58,24.90
2017,06,24,11,59,25.00
2017,06,24,12,00,25.00
2017,06,24,12,01,25.00
2017,06,24,12,02,25.10
2017,06,24,12,03,25.10
2017,06,24,12,04,25.20
2017,06,24,12,05,25.30
2017,06,24,12,06,25.30
2017,06,24,12,07,25.30
2017,06,24,12,08,25.30
2017,06,24,12,09,25.30
2017,06,24,12,10,25.40
2017,06,24,12,11,25.40
2017,06,24,12,12,25.40
2017,06,24,12,13,25.40
2017,06,24,12,14,25.40
2017,06,24,12,15,25.40
2017,06,24,12,16,25.50
2017,06,24,12,17,25.40
2017,06,24,12,18,25.40
2017,06,24,12,19,25.40
2017,06,24,12,20,25.40
2017,06,24,12,21,25.40
2017,06,24,12,22,25.50
2017,06,24,12,23,25.60
2017,06,24,12,24,25.60
2017,06,24,12,25,25.70
2017,06,24,12,26,25.80
2017,06,24,12,27,25.90
2017,06,24,12,28,26.00
2017,06,24,12,29,26.00
2017,06,24,12,30,26.10
2017,06,24,12,31,26.00
2017,06,24,12,32,26.00
2017,06,24,12,33,25.90
2017,06,24,12,34,25.90
2017,06,24,12,35,25.80
2017,06,24,12,36,25.70
2017,06,24,12,37,25.70
2017,06,24,12,38,25.70
2017,06,24,12,39,25.60
2017,06,24,12,40,25.50
2017,06,24,12,41,25.40
2017,06,24,12,42,25.30
2017,06,24,12,43,25.30
2017,06,24,12,44,25.20
2017,06,24,12,45,25.10
2017,06,24,12,46,25.20
2017,06,24,12,47,25.20
2017,06,24,12,48,25.30
2017,06,24,12,49,25.30
2017,06,24,12,50,25.20
2017,06,24,12,51,25.20
2017,06,24,12,52,25.20
2017,06,24,12,53,25.30
2017,06,24,12,54,25.40
2017,06,24,12,55,25.50
2017,06,24,12,56,25.60
2017,06,24,12,57,25.70
2017,06,24,12,58,25.80
2017,06,24,12,59,25.70
2017,06,24,13,00,25.60
2017,06,24,13,01,25.40
2017,06,24,13,02,25.30
2017,06,24,13,03,25.30
2017,06,24,13,04,25.40
2017,06,24,13,05,25.50
2017,06,24,13,06,25.60
2017,06,24,13,07,25.70
2017,06,24,13,08,25.70
2017,06,24,13,09,25.80
2017,06,24,13,10,25.80
2017,06,24,13,11,25.70
2017,06,24,13,12,25.70
2017,06,24,13,13,25.60
2017,06,24,13,14,25.40
2017,06,24,13,15,25.30
2017,06,24,13,16,25.20
2017,06,24,13,17,25.10
2017,06,24,13,18,25.10
2017,06,24,13,19,25.00
2017,06,24,13,20,24.90
2017,06,24,13,21,24.90
2017,06,24,13,22,25.00
2017,06,24,13,23,25.10
2017,06,24,13,24,25.20
2017,06,24,13,25,25.20
2017,06,24,13,26,25.20
2017,06,24,13,27,25.30
2017,06,24,13,28,25.30
2017,06,24,13,29,25.30
2017,06,24,13,30,25.30
2017,06,24,13,31,25.50
2017,06,24,13,32,25.60
2017,06,24,13,33,25.70
2017,06,24,13,34,25.80
2017,06,24,13,35,25.90
2017,06,24,13,36,26.00
2017,06,24,13,37,26.10
2017,06,24,13,38,26.20
2017,06,24,13,39,26.30
2017,06,24,13,40,26.30
2017,06,24,13,41,26.40
2017,06,24,13,42,26.50
2017,06,24,13,43,26.50
2017,06,24,13,44,26.60
2017,06,24,13,45,26.70
2017,06,24,13,46,26.70
2017,06,24,13,47,26.50
2017,06,24,13,48,26.30
2017,06,24,13,49,26.10
2017,06,24,13,50,26.00
2017,06,24,13,51,26.00
2017,06,24,13,52,26.00
2017,06,24,13,53,26.10
2017,06,24,13,54,26.10
2017,06,24,13,55,26.20
2017,06,24,13,56,26.30
2017,06,24,13,57,26.40
2017,06,24,13,58,26.50
2017,06,24,13,59,26.60
2017,06,24,14,00,26.60
2017,06,24,14,01,26.60
2017,06,24,14,02,26.60
2017,06,24,14,03,26.60
2017,06,24,14,04,26.60
2017,06,24,14,05,26.60
2017,06,24,14,06,26.50
2017,06,24,14,07,26.50
2017,06,24,14,08,26.40
2017,06,24,14,09,26.40
2017,06,24,14,10,26.30
2017,06,24,14,11,26.30
2017,06,24,14,12,26.40
2017,06,24,14,13,26.50
2017,06,24,14,14,26.70
2017,06,24,14,15,26.70
2017,06,24,14,16,26.70
2017,06,24,14,17,26.70
2017,06,24,14,18,26.60
2017,06,24,14,19,26.50
2017,06,24,14,20,26.40
2017,06,24,14,21,26.30
2017,06,24,14,22,26.30
2017,06,24,14,23,26.20
2017,06,24,14,24,26.20
2017,06,24,14,25,26.20
2017,06,24,14,26,26.30
2017,06,24,14,27,26.30
2017,06,24,14,28,26.40
2017,06,24,14,29,26.40
2017,06,24,14,30,26.50
2017,06,24,14,31,26.60
2017,06,24,14,32,26.60
2017,06,24,14,33,26.70
2017,06,24,14,34,26.70
2017,06,24,14,35,26.70
2017,06,24,14,36,26.70
2017,06,24,14,37,26.70
2017,06,24,14,38,26.70
2017,06,24,14,39,26.70
2017,06,24,14,40,26.70
2017,06,24,14,41,26.70
2017,06,24,14,42,26.70
2017,06,24,14,43,26.70
2017,06,24,14,44,26.70
2017,06,24,14,45,26.70
2017,06,24,14,46,26.70
2017,06,24,14,47,26.80
2017,06,24,14,48,26.90
2017,06,24,14,49,27.00
2017,06,24,14,50,27.10
2017,06,24,14,51,27.00
2017,06,24,14,52,26.90
2017,06,24,14,53,26.90
2017,06,24,14,54,26.90
2017,06,24,14,55,26.80
2017,06,24,14,56,26.80
2017,06,24,14,57,26.70
2017,06,24,14,58,26.80
2017,06,24,14,59,26.80
2017,06,24,15,00,26.80
2017,06,24,15,01,26.90
2017,06,24,15,02,26.90
2017,06,24,15,03,26.90
2017,06,24,15,04,26.90
2017,06,24,15,05,27.00
2017,06,24,15,06,27.00
2017,06,24,15,07,27.20
2017,06,24,15,08,27.30
2017,06,24,15,09,27.40
2017,06,24,15,10,27.50
2017,06,24,15,11,27.60
2017,06,24,15,12,27.70
2017,06,24,15,13,27.70
2017,06,24,15,14,27.70
2017,06,24,15,15,27.70
2017,06,24,15,16,27.60
2017,06,24,15,17,27.60
2017,06,24,15,18,27.50
2017,06,24,15,19,27.50
2017,06,24,15,20,27.60
2017,06,24,15,21,27.50
2017,06,24,15,22,27.50
2017,06,24,15,23,27.40
2017,06,24,15,24,27.40
2017,06,24,15,25,27.30
2017,06,24,15,26,27.30
2017,06,24,15,27,27.30
2017,06,24,15,28,27.30
2017,06,24,15,29,27.40
2017,06,24,15,30,27.40
2017,06,24,15,31,27.40
2017,06,24,15,32,27.40
2017,06,24,15,33,27.40
2017,06,24,15,34,27.30
2017,06,24,15,35,27.30
2017,06,24,15,36,27.30
2017,06,24,15,37,27.40
2017,06,24,15,38,27.50
2017,06,24,15,39,27.50
2017,06,24,15,40,27.50
2017,06,24,15,41,27.40
2017,06,24,15,42,27.40
2017,06,24,15,43,27.40
2017,06,24,15,44,27.50
2017,06,24,15,45,27.60
2017,06,24,15,46,27.60
2017,06,24,15,47,27.70
2017,06,24,15,48,27.80
2017,06,24,15,49,27.90
2017,06,24,15,50,28.00
2017,06,24,15,51,28.10
2017,06,24,15,52,28.20
2017,06,24,15,53,28.30
2017,06,24,15,54,28.40
2017,06,24,15,55,28.50
2017,06,24,15,56,28.50
2017,06,24,15,57,28.40
2017,06,24,15,58,28.30
2017,06,24,15,59,28.40
2017,06,24,16,00,28.40
2017,06,24,16,01,28.50
2017,06,24,16,02,28.60
2017,06,24,16,03,28.60
2017,06,24,16,04,28.70
2017,06,24,16,05,28.70
2017,06,24,16,06,28.70
2017,06,24,16,07,28.80
2017,06,24,16,08,28.80
2017,06,24,16,09,28.80
2017,06,24,16,10,28.80
2017,06,24,16,11,28.90
2017,06,24,16,12,28.90
2017,06,24,16,13,29.00
2017,06,24,16,14,29.00
2017,06,24,16,15,29.10
2017,06,24,16,16,29.10
2017,06,24,16,17,29.10
2017,06,24,16,18,29.10
2017,06,24,16,19,29.10
2017,06,24,16,20,29.10
2017,06,24,16,21,29.10
2017,06,24,16,22,29.20
2017,06,24,16,23,29.20
2017,06,24,16,24,29.10
2017,06,24,16,25,29.10
2017,06,24,16,26,29.00
2017,06,24,16,27,29.00
2017,06,24,16,28,29.00
2017,06,24,16,29,29.00
2017,06,24,16,30,29.00
2017,06,24,16,31,29.00
2017,06,24,16,32,29.00
2017,06,24,16,33,29.00
2017,06,24,16,34,28.90
2017,06,24,16,35,28.80
2017,06,24,16,36,28.70
2017,06,24,16,37,28.60
2017,06,24,16,38,28.50
2017,06,24,16,39,28.50
2017,06,24,16,40,28.50
2017,06,24,16,41,28.50
2017,06,24,16,42,28.60
2017,06,24,16,43,28.70
2017,06,24,16,44,28.80
2017,06,24,16,45,28.80
2017,06,24,16,46,28.90
2017,06,24,16,47,29.00
2017,06,24,16,48,29.10
2017,06,24,16,49,29.20
2017,06,24,16,50,29.20
2017,06,24,16,51,29.30
2017,06,24,16,52,29.30
2017,06,24,16,53,29.30
2017,06,24,16,54,29.30
2017,06,24,16,55,29.40
2017,06,24,16,56,29.40
2017,06,24,16,57,29.40
2017,06,24,16,58,29.40
2017,06,24,16,59,29.40
2017,06,24,17,00,29.50
2017,06,24,17,01,29.40
2017,06,24,17,02,29.30
2017,06,24,17,03,29.30
2017,06,24,17,04,29.30
2017,06,24,17,05,29.30
2017,06,24,17,06,29.30
2017,06,24,17,07,29.30
2017,06,24,17,08,29.30
2017,06,24,17,09,29.30
2017,06,24,17,10,29.20
2017,06,24,17,11,29.20
2017,06,24,17,12,29.10
2017,06,24,17,13,29.10
2017,06,24,17,14,29.00
2017,06,24,17,15,28.90
2017,06,24,17,16,28.80
2017,06,24,17,17,28.70
2017,06,24,17,18,28.70
2017,06,24,17,19,28.60